Погода в Котласе

Погода в Котласе : погода сейчас, прогноз погоды и архив. Всё, что Вы хотите узнать о погоде в Котласе!

Поиск расширенной информации на нашем сайте:

Другие новости

Новости СМИ2

Главная страница сайта

Новости сайта

03.07.2017

Напоминаем, что на нашем специализированном сайте Метеоцентр.Азия вы можете получить высокодетализированные автоматические прогнозы погоды по пунктам России, СНГ и мира в авиационном формате (включающие направление и скорость ветра, видимость, явления погоды, количество и форму облачности, нижнюю и верхнюю границу облачности).


Погода в Котласе - сегодня

Время (UTC), дата Ветер
(°,м/с) 
Видим.   Явления Облачность Т
(°С)
Тd
(°С)
f(%) Тe
(°С)
Pmin
(гПа)
dP
(гПа)
Po
(мм)
O2
(г/м3)
Тmin Tmax R s Состояние
почвы
06 15.06.18 320 (СЗ) 20000 м    3/3 600 м 
[Sc]
+10.3 +0.2 49 +9  1017.1  0.2  758  294           
12 15.06.18 310 (СЗ) 6{11}  20000 м    3/3 1000 м верхняя 
[Sc|Ci fib]
+14.3 +2.1 44 +14  1017.4  0.2  758  290           
18 15.06.18 310 (СЗ) 20000 м    1/0 верхняя 
[Ci fib]
+12.6 +2.5 50 +12  1017  -0.2  758  291           
21 15.06.18 тихо ()   10 км    ясно 
+4.7 +3.3 91 +5  1018  0.8  758  300           
00 16.06.18 тихо ()   20000 м    ясно 
+2.2 +1.9 98 +2  1019  759  303           
03 16.06.18 310 (СЗ) 20000 м    1/0 верхняя 
[Ci fib]
+9.6 +3.6 66 +10  1019.8  0.9  760  295  +2.2        сухая 
06 16.06.18 350 (С) 20000 м    3/0 верхняя 
[Ci fib]
+14.8 +3.4 46 +15  1019.6  -0.1  760  290           
09 16.06.18 300 (СЗ) 20000 м    6/0 верхняя 
[Ci fib]
+18.5 +4.3 39 +19  1019  -0.4  759  286           
12 16.06.18 290 (З) 20000 м    6/0 верхняя 
[Ci fib]
+19.8 +5.1 38 +20  1018.3  -0.7  759  284           
18 16.06.18 тихо ()   20000 м    3/0 средняя, верхняя 
[Ac trans|Ci fib]
+13.6 +8.4 71 +14  1017.5  -0.2  758  290           
21 16.06.18 тихо ()   10 км    4/0 средняя, верхняя 
[Ac trans|Ci fib]
+8.3 +7.8 97 +8  1017.7  0.1  758  295           
00 17.06.18 тихо ()   20000 м  местами туман поземный  3/0 верхняя 
[Ci fib]
+6.6 +6.4 99 +7  1018.1  0.4  758  297           
03 17.06.18 тихо ()   20000 м    1/0 верхняя 
[Ci fib]
+13.4 +8.4 72 +13  1018.2  0.2  759  290  +5.9        сухая 
06 17.06.18 нст () 20000 м    ясно 
+19.6 +6.7 43 +21  1018.2  0.2  759  284           
09 17.06.18 310 (СЗ) 20000 м    ясно 
+23.3 +10 43 +24  1017.3  -0.8  758  280           
12 17.06.18 300 (СЗ) 20000 м    3/3 1000 м верхняя 
[Sc|Ci fib]
+25.3 +10.9 40 +27  1016.2  -1.1  757  277           
18 17.06.18 тихо ()   20000 м    3/0 средняя, верхняя 
[Ac trans|Ci fib]
+18 +13.2 74 +24  1014.9  -0.3  756  283           
21 17.06.18 тихо ()   6000 м  дымка  8/0 средняя, верхняя 
[Ac trans|Ci fib]
+12.4 +11.9 97 +16  1015.1  0.1  756  289           
00 18.06.18 120 (ЮВ) 6000 м  дымка  9/1 1000 м средняя, верхняя 
[Sc|Ac trans|Ci fib]
+11.8 +11.4 97 +15  1015.4  0.3  757  290           
03 18.06.18 тихо ()   6000 м  дымка  9/1 1000 м средняя 
[Sc|Ac trans]
+15.3 +13.1 87 +21  1014.9  -0.5  756  286  +11.4        сухая 
06 18.06.18 290 (З) 20000 м    1/0 верхняя 
[Ci fib]
+21.6 +13.4 60 +27  1014.6  -0.1  756  280           
09 18.06.18 290 (З) 20000 м    9/5 1000 м средняя, верхняя 
[Cu hum|Ac trans|Ci fib]
+25.5 +12.5 44 +30  1013.8  -0.8  755  276           
12 18.06.18 320 (СЗ) 20000 м    6/3 1000 м средняя, верхняя 
[Cu hum|Ac trans|Ci fib]
+27.6 +11.9 38 +31  1012.5  -1.2  755  274           
18 18.06.18 тихо ()   20000 м    6/0 средняя, верхняя 
[Ac trans|Ci fib]
+18.5 +16.2 86 +29  1011.1  -1.1  753  281           
21 18.06.18 тихо ()   6000 м  дымка  4/0 средняя, верхняя 
[Ac trans|Ci fib]
+12.6 +12.2 97 +17  1010.9  -0.3  753  288           
Время (UTC), дата Ветер
(°,м/с) 
Видим.   Явления Облачность Т
(°С)
Тd
(°С)
f(%) Тe
(°С)
Pmin
(гПа)
dP
(гПа)
Po
(мм)
O2
(г/м3)
Тmin Tmax R s Состояние
почвы

Для получения пояснительной информации подведите курсор к названию столбца.

ПОГОДА в Котласе - архив

Всё, что Вы хотите узнать о погоде в Котласе - удобно и подробно!

Выберите нужную дату (начиная с 1 января 2015* года) и нажмите кнопку "Найти".
Будут отображены архивные сводки погоды по пункту Котлас, начиная с указанной даты.


Отображать данные в формате CSV (для использования в таблицах Excel)


Внимание! Наш архив погоды предназначен исключительно для личного некоммерческого использования в познавательных целях. Если Вам необходимы официальные справки о состоянии погоды (для производственных, юридических, коммерческих и т.п. целей), обращайтесь в органы Росгидромета.

*Примечание: данная дата относится к архиву по метеостанциям СССР (Россия, СНГ, Балтия).
Архив по метеостанциям Зарубежной Европы и Азии (кроме Китая) хранится 10 дней, по другим регионам земного шара (Китай, Африка, Америка, Австралия, Океания) - 1 день.

Котлас - район местоположения метеостанции


Название, широта, долгота, высота метеостанции:
Котлас 61.2°ш. 46.7°д. 56 м над ур. моря [Российская Федерация]

Дополнительная информация

В oтличие oт бoльшинства пoгoдных сайтoв мы публикуем пoдрoбную метеoинфoрмацию в детальнoм прoфессиoнальнoм фoрмате.

Характеристики температуры и влажнoсти вoздуха измеряются на высoте 2 м в тени вдали oт зданий и деревьев.
Скoрoсть ветра измеряется на высoте 10 м (на урoвне рoста челoвека скoрoсть ветра ниже в 1.5-2 раза). Если метеoстанция нахoдится в гoрoде или в лесу, тo скoрoсть ветра занижена на 2-4 м/с пo сравнению с oткрытым местoм. Скoрoсть ветра над акватoриями крупных рек и oзёр, а также на вершинах хoлмoв на 2-5 м/с выше, чем в oбычных услoвиях.
Атмoсфернoе давление в разных тoчках местнoсти мoжет значительнo oтличаться oт давления на метеoстанции, в зависимoсти oт услoвий рельефа (при пoдъёме на 10 м давление пoнижается примернo на 1 мм рт.ст.).